Weather History for Meridian NAS, MS

Change the Weather History Date:

Sunday, February 23, 2014

  Actual Average Record
Temperature  
Mean Temperature 55 °F -  
Max Temperature 71 °F 60 °F 82 °F (2012)
Min Temperature 39 °F 42 °F 28 °F (2009)
Degree Days  
Heating Degree Days 10    
Growing Degree Days 5 (Base 50)    
Moisture  
Dew Point 46 °F    
Average Humidity 75    
Maximum Humidity 93    
Minimum Humidity 45    
Precipitation  
Precipitation 0.00 in - - ()
Sea Level Pressure  
Sea Level Pressure 30.04 in    
Wind  
Wind Speed 2 mph (West)    
Max Wind Speed 9 mph    
Max Gust Speed -    
Visibility 10 miles    
Events      
Averages and records for this station are not official NWS values.
T = Trace of Precipitation, MM = Missing Value Source: NWS Daily Summary

Daily Weather History Graph

Daily Weather History Graph

Search for Another Location

Airport:

Trip Planner

Search our weather history database for the weather conditions in past years. The results will help you decide how hot, cold, wet, or windy it might be!

Date:

Astronomy

Feb. 23, 2014 Rise Set
Actual Time 6:28 AM CST 5:46 PM CST
Civil Twilight 6:03 AM CST 6:11 PM CST
Nautical Twilight 5:35 AM CST 6:40 PM CST
Astronomical Twilight 5:06 AM CST 7:08 PM CST
Moon 1:17 AM CST (2/23) 11:59 AM CST (2/23)
Length of Visible Light 12h 07m
Length of Day
11h 18m
Last Quarter, 38% of the Moon is Illuminated
Feb 23
Last Quarter
Mar 1
New
Mar 8
First Quarter
Mar 16
Full
Mar 23
Last Quarter

Hourly Weather History & Observations

Time (CST) Temp. Windchill Dew Point Humidity Pressure Visibility Wind Dir Wind Speed Gust Speed Precip Events Conditions
12:56 AM 45.0 °F - 39.0 °F 80% 30.06 in 10.0 mi Calm Calm - N/A   Clear
1:56 AM 43.0 °F - 39.0 °F 86% 30.06 in 10.0 mi Calm Calm - N/A   Partly Cloudy
2:56 AM 42.1 °F - 39.0 °F 89% 30.05 in 10.0 mi Calm Calm - N/A   Clear
3:56 AM 41.0 °F 39.0 °F 37.9 °F 89% 30.06 in 10.0 mi West 3.5 mph - N/A   Partly Cloudy
4:56 AM 39.9 °F 37.8 °F 37.0 °F 89% 30.07 in 10.0 mi NW 3.5 mph - N/A   Mostly Cloudy
5:56 AM 41.0 °F - 39.0 °F 93% 30.08 in 10.0 mi Calm Calm - N/A   Mostly Cloudy
6:22 AM 42.1 °F 40.2 °F 39.0 °F 89% 30.03 in 10.0 mi SSE 3.5 mph - N/A   Overcast
6:39 AM 42.1 °F - 39.0 °F 89% 30.03 in 10.0 mi Calm Calm - N/A   Mostly Cloudy
6:56 AM 43.0 °F - 39.0 °F 86% 30.06 in 10.0 mi Calm Calm - N/A   Mostly Cloudy
7:30 AM 43.0 °F - 39.9 °F 89% 30.03 in 10.0 mi Calm Calm - N/A   Scattered Clouds
7:39 AM 44.1 °F - 39.9 °F 85% 30.03 in 10.0 mi Calm Calm - N/A   Mostly Cloudy
7:49 AM 46.0 °F - 41.0 °F 83% 30.03 in 10.0 mi Calm Calm - N/A   Scattered Clouds
7:56 AM 46.9 °F - 41.0 °F 80% 30.07 in 10.0 mi Calm Calm - N/A   Scattered Clouds
8:56 AM 54.0 °F - 41.0 °F 62% 30.07 in 10.0 mi ESE 3.5 mph - N/A   Clear
9:44 AM 59.0 °F - 43.0 °F 55% 30.04 in 10.0 mi Calm Calm - N/A   Mostly Cloudy
9:56 AM 60.1 °F - 44.1 °F 55% 30.08 in 10.0 mi SW 4.6 mph - N/A   Overcast
10:27 AM 64.0 °F - 51.1 °F 63% 30.04 in 10.0 mi NW 4.6 mph - N/A   Scattered Clouds
10:56 AM 66.0 °F - 51.1 °F 59% 30.07 in 10.0 mi NW 5.8 mph - N/A   Clear
11:56 AM 69.1 °F - 50.0 °F 51% 30.04 in 10.0 mi NNW 4.6 mph - N/A   Clear
12:56 PM 71.1 °F - 48.9 °F 45% 30.01 in 10.0 mi Variable 3.5 mph - N/A   Clear
1:56 PM 71.1 °F - 50.0 °F 47% 29.99 in 10.0 mi WSW 3.5 mph - N/A   Overcast
2:01 PM 71.1 °F - 50.0 °F 47% 29.96 in 10.0 mi WSW 4.6 mph - N/A   Mostly Cloudy
2:56 PM 70.0 °F - 54.0 °F 57% 29.98 in 10.0 mi SW 5.8 mph - N/A   Mostly Cloudy
3:56 PM 69.1 °F - 55.0 °F 61% 29.98 in 10.0 mi SW 5.8 mph - N/A   Overcast
4:56 PM 68.0 °F - 55.0 °F 63% 29.99 in 10.0 mi Variable 4.6 mph - N/A   Mostly Cloudy
5:56 PM 64.0 °F - 55.0 °F 73% 29.99 in 10.0 mi Calm Calm - N/A   Mostly Cloudy
6:56 PM 61.0 °F - 55.0 °F 81% 30.01 in 10.0 mi Calm Calm - N/A   Mostly Cloudy
7:56 PM 60.1 °F - 55.0 °F 83% 30.03 in 10.0 mi Calm Calm - N/A   Mostly Cloudy
8:56 PM 55.0 °F - 52.0 °F 89% 30.04 in 10.0 mi NNE 4.6 mph - N/A   Clear
9:56 PM 55.0 °F - 53.1 °F 93% 30.06 in 9.0 mi South 4.6 mph - N/A   Clear
10:56 PM 53.1 °F - 51.1 °F 93% 30.07 in 7.0 mi NNW 3.5 mph - N/A   Clear
11:56 PM 52.0 °F - 50.0 °F 93% 30.08 in 5.0 mi NNW 9.2 mph - N/A   Clear